Year,Month,Day,Hour,Minute,Value (Times are PST for temperature in C)
2013,04,03,00,00,9.30
2013,04,03,00,01,9.30
2013,04,03,00,02,9.30
2013,04,03,00,03,9.30
2013,04,03,00,04,9.30
2013,04,03,00,05,9.30
2013,04,03,00,06,9.30
2013,04,03,00,07,9.30
2013,04,03,00,08,9.30
2013,04,03,00,09,9.30
2013,04,03,00,10,9.30
2013,04,03,00,11,9.30
2013,04,03,00,12,9.30
2013,04,03,00,13,9.30
2013,04,03,00,14,9.30
2013,04,03,00,15,9.30
2013,04,03,00,16,9.30
2013,04,03,00,17,9.30
2013,04,03,00,18,9.30
2013,04,03,00,19,9.20
2013,04,03,00,20,9.20
2013,04,03,00,21,9.20
2013,04,03,00,22,9.20
2013,04,03,00,23,9.20
2013,04,03,00,24,9.20
2013,04,03,00,25,9.20
2013,04,03,00,26,9.20
2013,04,03,00,27,9.20
2013,04,03,00,28,9.20
2013,04,03,00,29,9.20
2013,04,03,00,30,9.20
2013,04,03,00,31,9.20
2013,04,03,00,32,9.20
2013,04,03,00,33,9.20
2013,04,03,00,34,9.20
2013,04,03,00,35,9.20
2013,04,03,00,36,9.20
2013,04,03,00,37,9.20
2013,04,03,00,38,9.20
2013,04,03,00,39,9.20
2013,04,03,00,40,9.20
2013,04,03,00,41,9.20
2013,04,03,00,42,9.20
2013,04,03,00,43,9.20
2013,04,03,00,44,9.20
2013,04,03,00,45,9.20
2013,04,03,00,46,9.20
2013,04,03,00,47,9.20
2013,04,03,00,48,9.20
2013,04,03,00,49,9.20
2013,04,03,00,50,9.20
2013,04,03,00,51,9.20
2013,04,03,00,52,9.20
2013,04,03,00,53,9.20
2013,04,03,00,54,9.20
2013,04,03,00,55,9.20
2013,04,03,00,56,9.20
2013,04,03,00,57,9.20
2013,04,03,00,58,9.10
2013,04,03,00,59,9.10
2013,04,03,01,00,9.10
2013,04,03,01,01,9.10
2013,04,03,01,02,9.10
2013,04,03,01,03,9.10
2013,04,03,01,04,9.10
2013,04,03,01,05,9.10
2013,04,03,01,06,9.10
2013,04,03,01,07,9.10
2013,04,03,01,08,9.10
2013,04,03,01,09,9.10
2013,04,03,01,10,9.10
2013,04,03,01,11,9.10
2013,04,03,01,12,9.10
2013,04,03,01,13,9.10
2013,04,03,01,14,9.10
2013,04,03,01,15,9.00
2013,04,03,01,16,9.00
2013,04,03,01,17,9.00
2013,04,03,01,18,9.00
2013,04,03,01,19,9.00
2013,04,03,01,20,9.00
2013,04,03,01,21,9.00
2013,04,03,01,22,9.00
2013,04,03,01,23,9.00
2013,04,03,01,24,9.00
2013,04,03,01,25,9.00
2013,04,03,01,26,8.90
2013,04,03,01,27,8.90
2013,04,03,01,28,8.90
2013,04,03,01,29,8.90
2013,04,03,01,30,8.90
2013,04,03,01,31,8.90
2013,04,03,01,32,8.90
2013,04,03,01,33,8.90
2013,04,03,01,34,8.90
2013,04,03,01,35,8.90
2013,04,03,01,36,8.90
2013,04,03,01,37,8.80
2013,04,03,01,38,8.80
2013,04,03,01,39,8.80
2013,04,03,01,40,8.80
2013,04,03,01,41,8.80
2013,04,03,01,42,8.80
2013,04,03,01,43,8.80
2013,04,03,01,44,8.80
2013,04,03,01,45,8.80
2013,04,03,01,46,8.70
2013,04,03,01,47,8.70
2013,04,03,01,48,8.70
2013,04,03,01,49,8.70
2013,04,03,01,50,8.70
2013,04,03,01,51,8.70
2013,04,03,01,52,8.70
2013,04,03,01,53,8.70
2013,04,03,01,54,8.70
2013,04,03,01,55,8.60
2013,04,03,01,56,8.60
2013,04,03,01,57,8.60
2013,04,03,01,58,8.60
2013,04,03,01,59,8.60
2013,04,03,02,00,8.60
2013,04,03,02,01,8.60
2013,04,03,02,02,8.60
2013,04,03,02,03,8.60
2013,04,03,02,04,8.60
2013,04,03,02,05,8.50
2013,04,03,02,06,8.50
2013,04,03,02,07,8.50
2013,04,03,02,08,8.50
2013,04,03,02,09,8.40
2013,04,03,02,10,8.40
2013,04,03,02,11,8.40
2013,04,03,02,12,8.40
2013,04,03,02,13,8.30
2013,04,03,02,14,8.30
2013,04,03,02,15,8.30
2013,04,03,02,16,8.30
2013,04,03,02,17,8.30
2013,04,03,02,18,8.20
2013,04,03,02,19,8.20
2013,04,03,02,20,8.20
2013,04,03,02,21,8.20
2013,04,03,02,22,8.20
2013,04,03,02,23,8.10
2013,04,03,02,24,8.10
2013,04,03,02,25,8.10
2013,04,03,02,26,8.10
2013,04,03,02,27,8.00
2013,04,03,02,28,8.00
2013,04,03,02,29,8.00
2013,04,03,02,30,7.90
2013,04,03,02,31,7.90
2013,04,03,02,32,7.90
2013,04,03,02,33,7.90
2013,04,03,02,34,7.90
2013,04,03,02,35,7.80
2013,04,03,02,36,7.80
2013,04,03,02,37,7.80
2013,04,03,02,38,7.80
2013,04,03,02,39,7.80
2013,04,03,02,40,7.70
2013,04,03,02,41,7.70
2013,04,03,02,42,7.70
2013,04,03,02,43,7.70
2013,04,03,02,44,7.60
2013,04,03,02,45,7.60
2013,04,03,02,46,7.60
2013,04,03,02,47,7.50
2013,04,03,02,48,7.50
2013,04,03,02,49,7.50
2013,04,03,02,50,7.40
2013,04,03,02,51,7.40
2013,04,03,02,52,7.40
2013,04,03,02,53,7.40
2013,04,03,02,54,7.30
2013,04,03,02,55,7.30
2013,04,03,02,56,7.30
2013,04,03,02,57,7.30
2013,04,03,02,58,7.30
2013,04,03,02,59,7.20
2013,04,03,03,00,7.20
2013,04,03,03,01,7.20
2013,04,03,03,02,7.20
2013,04,03,03,03,7.20
2013,04,03,03,04,7.10
2013,04,03,03,05,7.10
2013,04,03,03,06,7.10
2013,04,03,03,07,7.10
2013,04,03,03,08,7.10
2013,04,03,03,09,7.10
2013,04,03,03,10,7.00
2013,04,03,03,11,7.00
2013,04,03,03,12,7.00
2013,04,03,03,13,7.00
2013,04,03,03,14,6.90
2013,04,03,03,15,6.90
2013,04,03,03,16,6.90
2013,04,03,03,17,6.90
2013,04,03,03,18,6.90
2013,04,03,03,19,6.90
2013,04,03,03,20,6.90
2013,04,03,03,21,6.80
2013,04,03,03,22,6.80
2013,04,03,03,23,6.80
2013,04,03,03,24,6.80
2013,04,03,03,25,6.80
2013,04,03,03,26,6.80
2013,04,03,03,27,6.80
2013,04,03,03,28,6.80
2013,04,03,03,29,6.70
2013,04,03,03,30,6.70
2013,04,03,03,31,6.70
2013,04,03,03,32,6.70
2013,04,03,03,33,6.70
2013,04,03,03,34,6.70
2013,04,03,03,35,6.70
2013,04,03,03,36,6.70
2013,04,03,03,37,6.70
2013,04,03,03,38,6.70
2013,04,03,03,39,6.60
2013,04,03,03,40,6.60
2013,04,03,03,41,6.60
2013,04,03,03,42,6.60
2013,04,03,03,43,6.60
2013,04,03,03,44,6.60
2013,04,03,03,45,6.60
2013,04,03,03,46,6.60
2013,04,03,03,47,6.60
2013,04,03,03,48,6.60
2013,04,03,03,49,6.60
2013,04,03,03,50,6.60
2013,04,03,03,51,6.60
2013,04,03,03,52,6.60
2013,04,03,03,53,6.60
2013,04,03,03,54,6.60
2013,04,03,03,55,6.60
2013,04,03,03,56,6.60
2013,04,03,03,57,6.60
2013,04,03,03,58,6.70
2013,04,03,03,59,6.70
2013,04,03,04,00,6.70
2013,04,03,04,01,6.70
2013,04,03,04,02,6.70
2013,04,03,04,03,6.70
2013,04,03,04,04,6.70
2013,04,03,04,05,6.70
2013,04,03,04,06,6.70
2013,04,03,04,07,6.70
2013,04,03,04,08,6.70
2013,04,03,04,09,6.70
2013,04,03,04,10,6.70
2013,04,03,04,11,6.70
2013,04,03,04,12,6.80
2013,04,03,04,13,6.80
2013,04,03,04,14,6.80
2013,04,03,04,15,6.80
2013,04,03,04,16,6.80
2013,04,03,04,17,6.80
2013,04,03,04,18,6.80
2013,04,03,04,19,6.80
2013,04,03,04,20,6.80
2013,04,03,04,21,6.80
2013,04,03,04,22,6.80
2013,04,03,04,23,6.80
2013,04,03,04,24,6.80
2013,04,03,04,25,6.80
2013,04,03,04,26,6.80
2013,04,03,04,27,6.90
2013,04,03,04,28,6.90
2013,04,03,04,29,6.90
2013,04,03,04,30,6.90
2013,04,03,04,31,6.90
2013,04,03,04,32,6.90
2013,04,03,04,33,6.90
2013,04,03,04,34,6.90
2013,04,03,04,35,6.90
2013,04,03,04,36,6.90
2013,04,03,04,37,6.90
2013,04,03,04,38,6.90
2013,04,03,04,39,6.90
2013,04,03,04,40,7.00
2013,04,03,04,41,7.00
2013,04,03,04,42,7.00
2013,04,03,04,43,7.00
2013,04,03,04,44,7.00
2013,04,03,04,45,7.00
2013,04,03,04,46,7.00
2013,04,03,04,47,7.00
2013,04,03,04,48,7.00
2013,04,03,04,49,7.00
2013,04,03,04,50,7.10
2013,04,03,04,51,7.10
2013,04,03,04,52,7.10
2013,04,03,04,53,7.10
2013,04,03,04,54,7.10
2013,04,03,04,55,7.10
2013,04,03,04,56,7.10
2013,04,03,04,57,7.10
2013,04,03,04,58,7.10
2013,04,03,04,59,7.10
2013,04,03,05,00,7.10
2013,04,03,05,01,7.10
2013,04,03,05,02,7.10
2013,04,03,05,03,7.10
2013,04,03,05,04,7.10
2013,04,03,05,05,7.10
2013,04,03,05,06,7.10
2013,04,03,05,07,7.10
2013,04,03,05,08,7.20
2013,04,03,05,09,7.20
2013,04,03,05,10,7.20
2013,04,03,05,11,7.20
2013,04,03,05,12,7.20
2013,04,03,05,13,7.20
2013,04,03,05,14,7.20
2013,04,03,05,15,7.20
2013,04,03,05,16,7.20
2013,04,03,05,17,7.20
2013,04,03,05,18,7.20
2013,04,03,05,19,7.20
2013,04,03,05,20,7.20
2013,04,03,05,21,7.20
2013,04,03,05,22,7.20
2013,04,03,05,23,7.20
2013,04,03,05,24,7.20
2013,04,03,05,25,7.20
2013,04,03,05,26,7.20
2013,04,03,05,27,7.20
2013,04,03,05,28,7.20
2013,04,03,05,29,7.20
2013,04,03,05,30,7.20
2013,04,03,05,31,7.20
2013,04,03,05,32,7.20
2013,04,03,05,33,7.20
2013,04,03,05,34,7.20
2013,04,03,05,35,7.20
2013,04,03,05,36,7.20
2013,04,03,05,37,7.20
2013,04,03,05,38,7.20
2013,04,03,05,39,7.20
2013,04,03,05,40,7.20
2013,04,03,05,41,7.20
2013,04,03,05,42,7.20
2013,04,03,05,43,7.20
2013,04,03,05,44,7.20
2013,04,03,05,45,7.20
2013,04,03,05,46,7.10
2013,04,03,05,47,7.10
2013,04,03,05,48,7.10
2013,04,03,05,49,7.10
2013,04,03,05,50,7.10
2013,04,03,05,51,7.00
2013,04,03,05,52,7.00
2013,04,03,05,53,7.00
2013,04,03,05,54,6.90
2013,04,03,05,55,6.90
2013,04,03,05,56,6.90
2013,04,03,05,57,6.90
2013,04,03,05,58,6.90
2013,04,03,05,59,6.80
2013,04,03,06,00,6.80
2013,04,03,06,01,6.80
2013,04,03,06,02,6.80
2013,04,03,06,03,6.80
2013,04,03,06,04,6.70
2013,04,03,06,05,6.70
2013,04,03,06,06,6.70
2013,04,03,06,07,6.70
2013,04,03,06,08,6.70
2013,04,03,06,09,6.60
2013,04,03,06,10,6.60
2013,04,03,06,11,6.60
2013,04,03,06,12,6.60
2013,04,03,06,13,6.60
2013,04,03,06,14,6.50
2013,04,03,06,15,6.50
2013,04,03,06,16,6.50
2013,04,03,06,17,6.50
2013,04,03,06,18,6.50
2013,04,03,06,19,6.40
2013,04,03,06,20,6.40
2013,04,03,06,21,6.40
2013,04,03,06,22,6.40
2013,04,03,06,23,6.40
2013,04,03,06,24,6.40
2013,04,03,06,25,6.40
2013,04,03,06,26,6.40
2013,04,03,06,27,6.40
2013,04,03,06,28,6.40
2013,04,03,06,29,6.40
2013,04,03,06,30,6.40
2013,04,03,06,31,6.40
2013,04,03,06,32,6.40
2013,04,03,06,33,6.40
2013,04,03,06,34,6.40
2013,04,03,06,35,6.40
2013,04,03,06,36,6.40
2013,04,03,06,37,6.40
2013,04,03,06,38,6.40
2013,04,03,06,39,6.40
2013,04,03,06,40,6.40
2013,04,03,06,41,6.30
2013,04,03,06,42,6.30
2013,04,03,06,43,6.30
2013,04,03,06,44,6.30
2013,04,03,06,45,6.30
2013,04,03,06,46,6.30
2013,04,03,06,47,6.30
2013,04,03,06,48,6.30
2013,04,03,06,49,6.30
2013,04,03,06,50,6.30
2013,04,03,06,51,6.30
2013,04,03,06,52,6.30
2013,04,03,06,53,6.30
2013,04,03,06,54,6.30
2013,04,03,06,55,6.30
2013,04,03,06,56,6.30
2013,04,03,06,57,6.30
2013,04,03,06,58,6.30
2013,04,03,06,59,6.30
2013,04,03,07,00,6.30
2013,04,03,07,01,6.30
2013,04,03,07,02,6.30
2013,04,03,07,03,6.30
2013,04,03,07,04,6.30
2013,04,03,07,05,6.30
2013,04,03,07,06,6.30
2013,04,03,07,07,6.40
2013,04,03,07,08,6.40
2013,04,03,07,09,6.40
2013,04,03,07,10,6.40
2013,04,03,07,11,6.40
2013,04,03,07,12,6.40
2013,04,03,07,13,6.40
2013,04,03,07,14,6.40
2013,04,03,07,15,6.40
2013,04,03,07,16,6.40
2013,04,03,07,17,6.40
2013,04,03,07,18,6.40
2013,04,03,07,19,6.50
2013,04,03,07,20,6.50
2013,04,03,07,21,6.50
2013,04,03,07,22,6.50
2013,04,03,07,23,6.50
2013,04,03,07,24,6.50
2013,04,03,07,25,6.50
2013,04,03,07,26,6.50
2013,04,03,07,27,6.60
2013,04,03,07,28,6.60
2013,04,03,07,29,6.60
2013,04,03,07,30,6.60
2013,04,03,07,31,6.60
2013,04,03,07,32,6.60
2013,04,03,07,33,6.70
2013,04,03,07,34,6.70
2013,04,03,07,35,6.70
2013,04,03,07,36,6.70
2013,04,03,07,37,6.70
2013,04,03,07,38,6.70
2013,04,03,07,39,6.80
2013,04,03,07,40,6.80
2013,04,03,07,41,6.80
2013,04,03,07,42,6.80
2013,04,03,07,43,6.80
2013,04,03,07,44,6.80
2013,04,03,07,45,6.80
2013,04,03,07,46,6.80
2013,04,03,07,47,6.90
2013,04,03,07,48,6.90
2013,04,03,07,49,6.90
2013,04,03,07,50,6.90
2013,04,03,07,51,6.90
2013,04,03,07,52,6.90
2013,04,03,07,53,6.90
2013,04,03,07,54,6.90
2013,04,03,07,55,6.90
2013,04,03,07,56,7.00
2013,04,03,07,57,7.00
2013,04,03,07,58,7.00
2013,04,03,07,59,7.00
2013,04,03,08,00,7.00
2013,04,03,08,01,7.00
2013,04,03,08,02,7.10
2013,04,03,08,03,7.10
2013,04,03,08,04,7.10
2013,04,03,08,05,7.10
2013,04,03,08,06,7.10
2013,04,03,08,07,7.10
2013,04,03,08,08,7.10
2013,04,03,08,09,7.20
2013,04,03,08,10,7.20
2013,04,03,08,11,7.20
2013,04,03,08,12,7.20
2013,04,03,08,13,7.20
2013,04,03,08,14,7.30
2013,04,03,08,15,7.30
2013,04,03,08,16,7.30
2013,04,03,08,17,7.30
2013,04,03,08,18,7.30
2013,04,03,08,19,7.30
2013,04,03,08,20,7.40
2013,04,03,08,21,7.40
2013,04,03,08,22,7.40
2013,04,03,08,23,7.40
2013,04,03,08,24,7.40
2013,04,03,08,25,7.40
2013,04,03,08,26,7.50
2013,04,03,08,27,7.50
2013,04,03,08,28,7.50
2013,04,03,08,29,7.50
2013,04,03,08,30,7.60
2013,04,03,08,31,7.60
2013,04,03,08,32,7.60
2013,04,03,08,33,7.60
2013,04,03,08,34,7.60
2013,04,03,08,35,7.60
2013,04,03,08,36,7.60
2013,04,03,08,37,7.60
2013,04,03,08,38,7.70
2013,04,03,08,39,7.70
2013,04,03,08,40,7.70
2013,04,03,08,41,7.70
2013,04,03,08,42,7.80
2013,04,03,08,43,7.80
2013,04,03,08,44,7.80
2013,04,03,08,45,7.80
2013,04,03,08,46,7.80
2013,04,03,08,47,7.90
2013,04,03,08,48,7.90
2013,04,03,08,49,7.90
2013,04,03,08,50,8.00
2013,04,03,08,51,8.00
2013,04,03,08,52,8.00
2013,04,03,08,53,8.10
2013,04,03,08,54,8.10
2013,04,03,08,55,8.10
2013,04,03,08,56,8.20
2013,04,03,08,57,8.20
2013,04,03,08,58,8.20
2013,04,03,08,59,8.30
2013,04,03,09,00,8.30
2013,04,03,09,01,8.30
2013,04,03,09,02,8.40
2013,04,03,09,03,8.40
2013,04,03,09,04,8.40
2013,04,03,09,05,8.50
2013,04,03,09,06,8.50
2013,04,03,09,07,8.60
2013,04,03,09,08,8.60
2013,04,03,09,09,8.60
2013,04,03,09,10,8.70
2013,04,03,09,11,8.70
2013,04,03,09,12,8.70
2013,04,03,09,13,8.70
2013,04,03,09,14,8.70
2013,04,03,09,15,8.80
2013,04,03,09,16,8.80
2013,04,03,09,17,8.80
2013,04,03,09,18,8.80
2013,04,03,09,19,8.90
2013,04,03,09,20,8.90
2013,04,03,09,21,9.00
2013,04,03,09,22,9.00
2013,04,03,09,23,9.10
2013,04,03,09,24,9.10
2013,04,03,09,25,9.20
2013,04,03,09,26,9.20
2013,04,03,09,27,9.20
2013,04,03,09,28,9.30
2013,04,03,09,29,9.30
2013,04,03,09,30,9.30
2013,04,03,09,31,9.40
2013,04,03,09,32,9.40
2013,04,03,09,33,9.40
2013,04,03,09,34,9.50
2013,04,03,09,35,9.50
2013,04,03,09,36,9.60
2013,04,03,09,37,9.60
2013,04,03,09,38,9.60
2013,04,03,09,39,9.70
2013,04,03,09,40,9.70
2013,04,03,09,41,9.70
2013,04,03,09,42,9.70
2013,04,03,09,43,9.70
2013,04,03,09,44,9.80
2013,04,03,09,45,9.80
2013,04,03,09,46,9.80
2013,04,03,09,47,9.80
2013,04,03,09,48,9.80
2013,04,03,09,49,9.80
2013,04,03,09,50,9.80
2013,04,03,09,51,9.80
2013,04,03,09,52,9.90
2013,04,03,09,53,9.90
2013,04,03,09,54,9.90
2013,04,03,09,55,10.00
2013,04,03,09,56,10.00
2013,04,03,09,57,10.10
2013,04,03,09,58,10.10
2013,04,03,09,59,10.10
2013,04,03,10,00,10.20
2013,04,03,10,01,10.20
2013,04,03,10,02,10.20
2013,04,03,10,03,10.30
2013,04,03,10,04,10.30
2013,04,03,10,05,10.30
2013,04,03,10,06,10.30
2013,04,03,10,07,10.40
2013,04,03,10,08,10.40
2013,04,03,10,09,10.40
2013,04,03,10,10,10.40
2013,04,03,10,11,10.40
2013,04,03,10,12,10.40
2013,04,03,10,13,10.40
2013,04,03,10,14,10.40
2013,04,03,10,15,10.40
2013,04,03,10,16,10.40
2013,04,03,10,17,10.50
2013,04,03,10,18,10.50
2013,04,03,10,19,10.60
2013,04,03,10,20,10.60
2013,04,03,10,21,10.60
2013,04,03,10,22,10.60
2013,04,03,10,23,10.60
2013,04,03,10,24,10.60
2013,04,03,10,25,10.70
2013,04,03,10,26,10.70
2013,04,03,10,27,10.70
2013,04,03,10,28,10.80
2013,04,03,10,29,10.80
2013,04,03,10,30,10.90
2013,04,03,10,31,10.90
2013,04,03,10,32,11.00
2013,04,03,10,33,11.10
2013,04,03,10,34,11.10
2013,04,03,10,35,11.10
2013,04,03,10,36,11.20
2013,04,03,10,37,11.20
2013,04,03,10,38,11.30
2013,04,03,10,39,11.30
2013,04,03,10,40,11.30
2013,04,03,10,41,11.30
2013,04,03,10,42,11.30
2013,04,03,10,43,11.30
2013,04,03,10,44,11.30
2013,04,03,10,45,11.30
2013,04,03,10,46,11.30
2013,04,03,10,47,11.20
2013,04,03,10,48,11.20
2013,04,03,10,49,11.20
2013,04,03,10,50,11.20
2013,04,03,10,51,11.20
2013,04,03,10,52,11.20
2013,04,03,10,53,11.20
2013,04,03,10,54,11.30
2013,04,03,10,55,11.30
2013,04,03,10,56,11.30
2013,04,03,10,57,11.40
2013,04,03,10,58,11.50
2013,04,03,10,59,11.60
2013,04,03,11,00,11.70
2013,04,03,11,01,11.70
2013,04,03,11,02,11.70
2013,04,03,11,03,11.80
2013,04,03,11,04,11.80
2013,04,03,11,05,11.90
2013,04,03,11,06,11.90
2013,04,03,11,07,11.90
2013,04,03,11,08,12.00
2013,04,03,11,09,12.10
2013,04,03,11,10,12.10
2013,04,03,11,11,12.20
2013,04,03,11,12,12.20
2013,04,03,11,13,12.20
2013,04,03,11,14,12.20
2013,04,03,11,15,12.20
2013,04,03,11,16,12.30
2013,04,03,11,17,12.30
2013,04,03,11,18,12.30
2013,04,03,11,19,12.20
2013,04,03,11,20,12.20
2013,04,03,11,21,12.10
2013,04,03,11,22,12.10
2013,04,03,11,23,12.10
2013,04,03,11,24,12.00
2013,04,03,11,25,12.00
2013,04,03,11,26,12.10
2013,04,03,11,27,12.10
2013,04,03,11,28,12.10
2013,04,03,11,29,12.10
2013,04,03,11,30,12.20
2013,04,03,11,31,12.20
2013,04,03,11,32,12.20
2013,04,03,11,33,12.20
2013,04,03,11,34,12.20
2013,04,03,11,35,12.20
2013,04,03,11,36,12.20
2013,04,03,11,37,12.20
2013,04,03,11,38,12.20
2013,04,03,11,39,12.20
2013,04,03,11,40,12.20
2013,04,03,11,41,12.20
2013,04,03,11,42,12.20
2013,04,03,11,43,12.20
2013,04,03,11,44,12.20
2013,04,03,11,45,12.20
2013,04,03,11,46,12.10
2013,04,03,11,47,12.10
2013,04,03,11,48,12.10
2013,04,03,11,49,12.20
2013,04,03,11,50,12.20
2013,04,03,11,51,12.20
2013,04,03,11,52,12.20
2013,04,03,11,53,12.30
2013,04,03,11,54,12.30
2013,04,03,11,55,12.40
2013,04,03,11,56,12.40
2013,04,03,11,57,12.40
2013,04,03,11,58,12.40
2013,04,03,11,59,12.40
2013,04,03,12,00,12.40
2013,04,03,12,01,12.50
2013,04,03,12,02,12.50
2013,04,03,12,03,12.50
2013,04,03,12,04,12.40
2013,04,03,12,05,12.40
2013,04,03,12,06,12.50
2013,04,03,12,07,12.50
2013,04,03,12,08,12.40
2013,04,03,12,09,12.50
2013,04,03,12,10,12.60
2013,04,03,12,11,12.60
2013,04,03,12,12,12.70
2013,04,03,12,13,12.80
2013,04,03,12,14,12.80
2013,04,03,12,15,12.90
2013,04,03,12,16,12.90
2013,04,03,12,17,13.00
2013,04,03,12,18,13.10
2013,04,03,12,19,13.10
2013,04,03,12,20,13.20
2013,04,03,12,21,13.20
2013,04,03,12,22,13.30
2013,04,03,12,23,13.30
2013,04,03,12,24,13.40
2013,04,03,12,25,13.50
2013,04,03,12,26,13.50
2013,04,03,12,27,13.60
2013,04,03,12,28,13.60
2013,04,03,12,29,13.60
2013,04,03,12,30,13.60
2013,04,03,12,31,13.60
2013,04,03,12,32,13.50
2013,04,03,12,33,13.50
2013,04,03,12,34,13.50
2013,04,03,12,35,13.60
2013,04,03,12,36,13.70
2013,04,03,12,37,13.70
2013,04,03,12,38,13.80
2013,04,03,12,39,13.90
2013,04,03,12,40,14.00
2013,04,03,12,41,14.10
2013,04,03,12,42,14.10
2013,04,03,12,43,14.20
2013,04,03,12,44,14.20
2013,04,03,12,45,14.10
2013,04,03,12,46,14.00
2013,04,03,12,47,14.00
2013,04,03,12,48,13.90
2013,04,03,12,49,13.90
2013,04,03,12,50,13.80
2013,04,03,12,51,13.80
2013,04,03,12,52,13.80
2013,04,03,12,53,13.70
2013,04,03,12,54,13.70
2013,04,03,12,55,13.60
2013,04,03,12,56,13.60
2013,04,03,12,57,13.50
2013,04,03,12,58,13.40
2013,04,03,12,59,13.40
2013,04,03,13,00,13.30
2013,04,03,13,01,13.30
2013,04,03,13,02,13.20
2013,04,03,13,03,13.20
2013,04,03,13,04,13.20
2013,04,03,13,05,13.20
2013,04,03,13,06,13.20
2013,04,03,13,07,13.20
2013,04,03,13,08,13.10
2013,04,03,13,09,13.10
2013,04,03,13,10,13.20
2013,04,03,13,11,13.20
2013,04,03,13,12,13.20
2013,04,03,13,13,13.20
2013,04,03,13,14,13.20
2013,04,03,13,15,13.20
2013,04,03,13,16,13.20
2013,04,03,13,17,13.20
2013,04,03,13,18,13.10
2013,04,03,13,19,13.10
2013,04,03,13,20,13.00
2013,04,03,13,21,13.00
2013,04,03,13,22,12.90
2013,04,03,13,23,12.90
2013,04,03,13,24,12.90
2013,04,03,13,25,12.90
2013,04,03,13,26,12.80
2013,04,03,13,27,12.80
2013,04,03,13,28,12.80
2013,04,03,13,29,12.80
2013,04,03,13,30,12.70
2013,04,03,13,31,12.80
2013,04,03,13,32,12.80
2013,04,03,13,33,12.80
2013,04,03,13,34,12.80
2013,04,03,13,35,12.90
2013,04,03,13,36,12.90
2013,04,03,13,37,12.90
2013,04,03,13,38,12.90
2013,04,03,13,39,12.80
2013,04,03,13,40,12.70
2013,04,03,13,41,12.70
2013,04,03,13,42,12.70
2013,04,03,13,43,12.70
2013,04,03,13,44,12.70
2013,04,03,13,45,12.70
2013,04,03,13,46,12.70
2013,04,03,13,47,12.70
2013,04,03,13,48,12.70
2013,04,03,13,49,12.60
2013,04,03,13,50,12.60
2013,04,03,13,51,12.60
2013,04,03,13,52,12.60
2013,04,03,13,53,12.60
2013,04,03,13,54,12.60
2013,04,03,13,55,12.70
2013,04,03,13,56,12.70
2013,04,03,13,57,12.70
2013,04,03,13,58,12.70
2013,04,03,13,59,12.70
2013,04,03,14,00,12.70
2013,04,03,14,01,12.70
2013,04,03,14,02,12.70
2013,04,03,14,03,12.80
2013,04,03,14,04,12.80
2013,04,03,14,05,12.90
2013,04,03,14,06,12.90
2013,04,03,14,07,13.00
2013,04,03,14,08,13.00
2013,04,03,14,09,13.10
2013,04,03,14,10,13.10
2013,04,03,14,11,13.10
2013,04,03,14,12,13.10
2013,04,03,14,13,13.10
2013,04,03,14,14,13.10
2013,04,03,14,15,13.10
2013,04,03,14,16,13.10
2013,04,03,14,17,13.00
2013,04,03,14,18,12.90
2013,04,03,14,19,12.80
2013,04,03,14,20,12.80
2013,04,03,14,21,12.70
2013,04,03,14,22,12.70
2013,04,03,14,23,12.70
2013,04,03,14,24,12.70
2013,04,03,14,25,12.70
2013,04,03,14,26,12.70
2013,04,03,14,27,12.80
2013,04,03,14,28,12.80
2013,04,03,14,29,12.80
2013,04,03,14,30,12.80
2013,04,03,14,31,12.80
2013,04,03,14,32,12.80
2013,04,03,14,33,12.70
2013,04,03,14,34,12.70
2013,04,03,14,35,12.70
2013,04,03,14,36,12.70
2013,04,03,14,37,12.70
2013,04,03,14,38,12.70
2013,04,03,14,39,12.70
2013,04,03,14,40,12.70
2013,04,03,14,41,12.70
2013,04,03,14,42,12.70
2013,04,03,14,43,12.70
2013,04,03,14,44,12.70
2013,04,03,14,45,12.60
2013,04,03,14,46,12.60
2013,04,03,14,47,12.60
2013,04,03,14,48,12.60
2013,04,03,14,49,12.60
2013,04,03,14,50,12.70
2013,04,03,14,51,12.70
2013,04,03,14,52,12.80
2013,04,03,14,53,12.80
2013,04,03,14,54,12.80
2013,04,03,14,55,12.90
2013,04,03,14,56,12.90
2013,04,03,14,57,12.90
2013,04,03,14,58,13.00
2013,04,03,14,59,13.00
2013,04,03,15,00,13.10
2013,04,03,15,01,13.10
2013,04,03,15,02,13.10
2013,04,03,15,03,13.10
2013,04,03,15,04,13.10
2013,04,03,15,05,13.10
2013,04,03,15,06,13.10
2013,04,03,15,07,13.10
2013,04,03,15,08,13.10
2013,04,03,15,09,13.10
2013,04,03,15,10,13.10
2013,04,03,15,11,13.10
2013,04,03,15,12,13.10
2013,04,03,15,13,13.00
2013,04,03,15,14,13.00
2013,04,03,15,15,13.00
2013,04,03,15,16,12.90
2013,04,03,15,17,12.90
2013,04,03,15,18,12.80
2013,04,03,15,19,12.80
2013,04,03,15,20,12.80
2013,04,03,15,21,12.70
2013,04,03,15,22,12.70
2013,04,03,15,23,12.70
2013,04,03,15,24,12.60
2013,04,03,15,25,12.60
2013,04,03,15,26,12.50
2013,04,03,15,27,12.50
2013,04,03,15,28,12.50
2013,04,03,15,29,12.50
2013,04,03,15,30,12.50
2013,04,03,15,31,12.50
2013,04,03,15,32,12.50
2013,04,03,15,33,12.50
2013,04,03,15,34,12.50
2013,04,03,15,35,12.50
2013,04,03,15,36,12.40
2013,04,03,15,37,12.40
2013,04,03,15,38,12.40
2013,04,03,15,39,12.40
2013,04,03,15,40,12.40
2013,04,03,15,41,12.40
2013,04,03,15,42,12.40
2013,04,03,15,43,12.40
2013,04,03,15,44,12.40
2013,04,03,17,09,12.90
2013,04,03,17,10,12.90
2013,04,03,17,11,12.90
2013,04,03,17,12,12.90
2013,04,03,17,13,12.90
2013,04,03,17,14,12.90
2013,04,03,17,15,12.90
2013,04,03,17,16,12.90
2013,04,03,17,17,12.90
2013,04,03,17,18,12.90
2013,04,03,17,19,12.90
2013,04,03,17,20,12.90
2013,04,03,17,21,12.90
2013,04,03,17,22,12.90
2013,04,03,17,23,12.90
2013,04,03,17,24,12.90
2013,04,03,17,25,12.90
2013,04,03,17,26,12.90
2013,04,03,17,27,13.00
2013,04,03,17,28,13.00
2013,04,03,17,29,13.00
2013,04,03,17,30,13.00
2013,04,03,17,31,13.00
2013,04,03,17,32,12.90
2013,04,03,17,33,12.90
2013,04,03,17,34,12.90
2013,04,03,17,35,12.90
2013,04,03,17,36,12.90
2013,04,03,17,37,12.90
2013,04,03,17,38,12.90
2013,04,03,17,39,12.90
2013,04,03,17,40,12.90
2013,04,03,17,41,12.90
2013,04,03,17,42,12.90
2013,04,03,17,43,12.90
2013,04,03,17,44,12.90
2013,04,03,17,45,12.90
2013,04,03,17,46,12.90
2013,04,03,17,47,12.90
2013,04,03,17,48,12.90
2013,04,03,17,49,13.00
2013,04,03,17,50,13.00
2013,04,03,17,51,13.00
2013,04,03,17,52,13.00
2013,04,03,17,53,13.00
2013,04,03,17,54,13.00
2013,04,03,17,55,13.10
2013,04,03,17,56,13.10
2013,04,03,17,57,13.10
2013,04,03,17,58,13.10
2013,04,03,17,59,13.10
2013,04,03,18,00,13.10
2013,04,03,18,01,13.10
2013,04,03,18,02,13.10
2013,04,03,18,03,13.10
2013,04,03,18,04,13.10
2013,04,03,18,05,13.10
2013,04,03,18,06,13.10
2013,04,03,18,07,13.00
2013,04,03,18,08,13.00
2013,04,03,18,09,13.00
2013,04,03,18,10,12.90
2013,04,03,18,11,12.90
2013,04,03,18,12,12.90
2013,04,03,18,13,12.90
2013,04,03,18,14,12.90
2013,04,03,18,15,12.90
2013,04,03,18,16,12.90
2013,04,03,18,17,12.90
2013,04,03,18,18,12.80
2013,04,03,18,19,12.80
2013,04,03,18,20,12.80
2013,04,03,18,21,12.80
2013,04,03,18,22,12.70
2013,04,03,18,23,12.70
2013,04,03,18,24,12.70
2013,04,03,18,25,12.70
2013,04,03,18,26,12.70
2013,04,03,18,27,12.70
2013,04,03,18,28,12.70
2013,04,03,18,29,12.70
2013,04,03,18,30,12.70
2013,04,03,18,31,12.70
2013,04,03,18,32,12.60
2013,04,03,18,33,12.60
2013,04,03,18,34,12.60
2013,04,03,18,35,12.60
2013,04,03,18,36,12.60
2013,04,03,18,37,12.50
2013,04,03,18,38,12.50
2013,04,03,18,39,12.50
2013,04,03,18,40,12.40
2013,04,03,18,41,12.40
2013,04,03,18,42,12.40
2013,04,03,18,43,12.40
2013,04,03,18,44,12.40
2013,04,03,18,45,12.40
2013,04,03,18,46,12.30
2013,04,03,18,47,12.30
2013,04,03,18,48,12.30
2013,04,03,18,49,12.30
2013,04,03,18,50,12.30
2013,04,03,18,51,12.30
2013,04,03,18,52,12.30
2013,04,03,18,53,12.20
2013,04,03,18,54,12.20
2013,04,03,18,55,12.20
2013,04,03,18,56,12.20
2013,04,03,18,57,12.20
2013,04,03,18,58,12.20
2013,04,03,18,59,12.20
2013,04,03,19,00,12.20
2013,04,03,19,01,12.10
2013,04,03,19,02,12.10
2013,04,03,19,03,12.10
2013,04,03,19,04,12.10
2013,04,03,19,05,12.10
2013,04,03,19,06,12.00
2013,04,03,19,07,12.00
2013,04,03,19,08,12.00
2013,04,03,19,09,12.00